Location: Bj�rn�ya
(74.5000°N, 19.0000°E)
Time: 09:07:58
(UTC+02:00)

Envisat - Pass Details

Date: 05 February 2022
Orbit: 764 x 765 km, 98.2° (Epoch: 20 May)

Event Time Altitude Azimuth Distance (km) Brightness Sun altitude
Rises 18:52:05 0° 255° (WSW) 3,238 7.4 -18.8°
Reaches altitude 10° 18:56:27 10° 291° (WNW) 2,316 6.7 -19.1°
Maximum altitude 18:57:51 11° 307° (NW) 2,246 6.3 -19.2°
Drops below altitude 10° 18:59:13 10° 322° (NW) 2,317 6.1 -19.2°
Sets 19:03:37 0° 359° (N) 3,249 6.4 -19.5°
